Cortland, IL

3:14 AM CDT on August 27, 2016 (GMT -0500)
De Kalb Taylor Municipal

Weather History for KDKB - March, 2013

Change the Weather History Date:

Saturday, March 16, 2013

  Actual Average (KARR) Record (KARR)
Temperature  
Mean Temperature 29 °F 37 °F  
Max Temperature 31 °F 47 °F 80 °F (2012)
Min Temperature 27 °F 27 °F 17 °F (2014)
Degree Days  
Heating Degree Days 36 28  
Month to date heating degree days 500  
Since 1 July heating degree days 5638  
Cooling Degree Days 0 0  
Month to date cooling degree days 0  
Year to date cooling degree days 0  
Moisture  
Dew Point 26 °F    
Average Humidity 86    
Maximum Humidity 93    
Minimum Humidity 74    
Precipitation  
Precipitation 0.00 in 0.07 in 0.08 in (2016)
Month to date precipitation 1.09  
Year to date precipitation 4.18  
Sea Level Pressure  
Sea Level Pressure 29.92 in    
Wind  
Wind Speed 12 mph (North)    
Max Wind Speed 18 mph    
Max Gust Speed 24 mph    
Visibility 8 miles    
Events      
T = Trace of Precipitation, MM = Missing Value Source: NWS Daily Summary

Daily Weather History Graph

Daily Weather History Graph

Search for Another Location

Airport or City:

Trip Planner

Search our weather history database for the weather conditions in past years. The results will help you decide how hot, cold, wet, or windy it might be!

Date:

Astronomy

Mar. 16, 2013 Rise Set
Actual Time 7:04 AM CDT 7:02 PM CDT
Civil Twilight 6:36 AM CDT 7:30 PM CDT
Nautical Twilight 6:04 AM CDT 8:03 PM CDT
Astronomical Twilight 5:31 AM CDT 8:36 PM CDT
Moon 9:29 AM CDT (3/16) No Moon Set
Length of Visible Light 12h 53m
Length of Day
11h 58m
Waxing Crescent, 23% of the Moon is Illuminated
Mar 16
Waxing Crescent
Mar 19
First Quarter
Mar 27
Full
Apr 2
Last Quarter
Apr 10
New

Hourly Weather History & Observations

Time (CDT) Temp. Windchill Dew Point Humidity Pressure Visibility Wind Dir Wind Speed Gust Speed Precip Events Conditions
12:15 AM 31.8 °F 22.3 °F 29.7 °F 92% 29.75 in 1.0 mi NE 12.7 mph - N/A   Overcast
12:35 AM 31.6 °F 22.1 °F 29.3 °F 91% 29.75 in 1.8 mi NE 12.7 mph 19.6 mph N/A   Overcast
12:55 AM 31.1 °F 21.4 °F 29.1 °F 92% 29.76 in 4.0 mi NE 12.7 mph - N/A   Overcast
1:15 AM 30.9 °F 21.2 °F 28.9 °F 92% 29.72 in 4.0 mi NE 12.7 mph - N/A   Overcast
1:35 AM 31.1 °F 21.4 °F 28.9 °F 92% 29.72 in 5.0 mi NE 12.7 mph - N/A   Overcast
1:55 AM 31.3 °F 20.7 °F 29.3 °F 92% 29.72 in 7.0 mi NE 15.0 mph - N/A   Overcast
2:15 AM 31.6 °F 20.7 °F 29.3 °F 91% 29.72 in 7.0 mi NNE 16.1 mph - N/A   Overcast
2:35 AM 31.6 °F 22.1 °F 29.3 °F 91% 29.74 in 7.0 mi NNE 12.7 mph 17.3 mph N/A   Overcast
2:55 AM 31.6 °F 22.1 °F 29.3 °F 91% 29.74 in 7.0 mi NNE 12.7 mph - N/A   Overcast
3:15 AM 31.6 °F 21.6 °F 29.3 °F 91% 29.72 in 7.0 mi NNE 13.8 mph - N/A   Overcast
3:35 AM 31.5 °F 20.1 °F 29.3 °F 92% 29.72 in 5.0 mi NNE 17.3 mph - N/A   Overcast
3:55 AM 31.1 °F 20.9 °F 29.1 °F 92% 29.72 in 3.0 mi NNE 13.8 mph - N/A   Overcast
4:15 AM 31.1 °F 21.9 °F 29.1 °F 92% 29.72 in 1.2 mi NNE 11.5 mph - N/A   Overcast
4:35 AM 31.1 °F 20.9 °F 29.1 °F 92% 29.73 in 0.8 mi NNE 13.8 mph 18.4 mph N/A   Overcast
4:55 AM 31.1 °F 20.9 °F 28.9 °F 92% 29.74 in 0.8 mi NNE 13.8 mph - N/A   Overcast
5:15 AM 30.2 °F 20.2 °F 28.4 °F 93% 29.74 in 1.0 mi NNE 12.7 mph - N/A   Overcast
5:35 AM 30.6 °F 20.7 °F 28.4 °F 92% 29.75 in 1.5 mi NNE 12.7 mph - N/A   Overcast
5:55 AM 30.2 °F 19.8 °F 28.2 °F 92% 29.75 in 1.8 mi NNE 13.8 mph - N/A   Overcast
6:15 AM 30.2 °F 20.2 °F 28.2 °F 92% 29.76 in 3.0 mi North 12.7 mph - N/A   Overcast
6:35 AM 30.2 °F 20.8 °F 28.2 °F 92% 29.77 in 3.0 mi North 11.5 mph - N/A   Overcast
6:55 AM 30.2 °F 19.8 °F 28.2 °F 92% 29.79 in 3.0 mi North 13.8 mph - N/A   Overcast
7:15 AM 29.8 °F 19.3 °F 27.7 °F 92% 29.80 in 4.0 mi North 13.8 mph - N/A   Overcast
7:35 AM 29.3 °F 18.2 °F 27.3 °F 92% 29.81 in 2.5 mi NNE 15.0 mph - N/A   Overcast
7:55 AM 29.5 °F 19.9 °F 27.5 °F 92% 29.82 in 3.0 mi North 11.5 mph - N/A   Overcast
8:15 AM 29.3 °F 18.2 °F 27.1 °F 92% 29.83 in 4.0 mi North 15.0 mph - N/A   Overcast
8:35 AM 29.1 °F 18.9 °F 27.0 °F 92% 29.85 in 7.0 mi North 12.7 mph - N/A   Overcast
8:55 AM 29.1 °F 18.9 °F 27.0 °F 92% 29.87 in 10.0 mi North 12.7 mph - N/A   Overcast
9:15 AM 29.1 °F 18.4 °F 26.6 °F 90% 29.89 in 10.0 mi North 13.8 mph - N/A   Overcast
9:35 AM 29.1 °F 18.4 °F 26.6 °F 90% 29.90 in 7.0 mi North 13.8 mph - N/A   Overcast
9:55 AM 29.1 °F 18.4 °F 26.6 °F 90% 29.90 in 5.0 mi North 13.8 mph - N/A   Overcast
10:15 AM 29.1 °F 18.9 °F 26.6 °F 90% 29.92 in 7.0 mi North 12.7 mph - N/A   Overcast
10:35 AM 29.1 °F 17.9 °F 26.6 °F 90% 29.93 in 10.0 mi North 15.0 mph - N/A   Overcast
10:55 AM 29.1 °F 18.9 °F 26.4 °F 90% 29.93 in 10.0 mi North 12.7 mph - N/A   Overcast
11:15 AM 29.1 °F 17.5 °F 26.2 °F 89% 29.94 in 10.0 mi North 16.1 mph - N/A   Overcast
11:35 AM 28.0 °F 15.7 °F 25.3 °F 90% 29.96 in 10.0 mi NNW 17.3 mph - N/A   Overcast
11:55 AM 27.3 °F 14.4 °F 24.8 °F 90% 29.97 in 10.0 mi NNW 18.4 mph 24.2 mph N/A   Overcast
12:15 PM 27.1 °F 16.4 °F 24.6 °F 90% 29.98 in 10.0 mi NNW 12.7 mph - N/A   Overcast
12:35 PM 27.1 °F 17.5 °F 24.6 °F 90% 29.98 in 10.0 mi NNW 10.4 mph - N/A   Overcast
12:55 PM 28.0 °F 17.0 °F 25.5 °F 90% 29.99 in 10.0 mi North 13.8 mph 19.6 mph N/A   Overcast
1:15 PM 28.0 °F 17.0 °F 25.3 °F 90% 29.99 in 10.0 mi North 13.8 mph - N/A   Overcast
1:35 PM 28.4 °F 18.5 °F 25.7 °F 90% 29.99 in 10.0 mi North 11.5 mph - N/A   Overcast
1:55 PM 28.4 °F 19.1 °F 25.3 °F 88% 29.99 in 10.0 mi North 10.4 mph - N/A   Overcast
2:15 PM 29.1 °F 19.4 °F 25.7 °F 87% 29.99 in 10.0 mi NNW 11.5 mph - N/A   Overcast
2:35 PM 29.1 °F 20.0 °F 25.7 °F 87% 29.99 in 10.0 mi North 10.4 mph - N/A   Overcast
2:55 PM 29.3 °F 20.2 °F 25.7 °F 86% 29.99 in 10.0 mi North 10.4 mph - N/A   Overcast
3:15 PM 29.1 °F 21.3 °F 25.5 °F 86% 30.00 in 10.0 mi North 8.1 mph - N/A   Overcast
3:35 PM 29.1 °F 21.3 °F 25.2 °F 85% 30.01 in 10.0 mi NNW 8.1 mph - N/A   Overcast
3:55 PM 29.3 °F 20.8 °F 24.8 °F 83% 30.01 in 10.0 mi NNW 9.2 mph - N/A   Overcast
4:15 PM 30.2 °F 23.4 °F 25.7 °F 83% 30.02 in 10.0 mi NW 6.9 mph - N/A   Overcast
4:35 PM 30.0 °F 23.2 °F 25.0 °F 82% 30.02 in 10.0 mi NW 6.9 mph - N/A   Overcast
4:55 PM 30.2 °F 22.6 °F 24.8 °F 80% 30.02 in 10.0 mi NW 8.1 mph - N/A   Mostly Cloudy
5:15 PM 30.2 °F 24.3 °F 24.6 °F 80% 30.02 in 10.0 mi NNW 5.8 mph - N/A   Overcast
5:35 PM 30.2 °F 23.4 °F 24.6 °F 80% 30.02 in 10.0 mi North 6.9 mph - N/A   Overcast
5:55 PM 29.8 °F 23.0 °F 23.5 °F 77% 30.02 in 10.0 mi North 6.9 mph - N/A   Overcast
6:15 PM 29.7 °F 22.8 °F 23.7 °F 79% 30.03 in 10.0 mi North 6.9 mph - N/A   Overcast
6:35 PM 29.5 °F 23.4 °F 23.7 °F 79% 30.04 in 10.0 mi North 5.8 mph - N/A   Overcast
6:55 PM 29.3 °F 24.3 °F 23.5 °F 79% 30.04 in 10.0 mi North 4.6 mph - N/A   Overcast
7:15 PM 29.3 °F 24.3 °F 23.0 °F 77% 30.04 in 10.0 mi North 4.6 mph - N/A   Overcast
7:35 PM 29.1 °F 24.1 °F 23.0 °F 78% 30.05 in 10.0 mi North 4.6 mph - N/A   Overcast
7:55 PM 29.3 °F - 22.1 °F 75% 30.05 in 10.0 mi Calm Calm - N/A   Overcast
8:15 PM 29.3 °F 25.6 °F 22.6 °F 76% 30.06 in 10.0 mi North 3.5 mph - N/A   Overcast
8:35 PM 29.1 °F - 23.0 °F 78% 30.07 in 10.0 mi Calm Calm - N/A   Overcast
8:55 PM 29.1 °F - 22.6 °F 77% 30.07 in 10.0 mi Calm Calm - N/A   Overcast
9:15 PM 29.1 °F 21.3 °F 21.7 °F 74% 30.08 in 10.0 mi WNW 8.1 mph - N/A   Overcast
9:35 PM 29.1 °F 20.6 °F 23.0 °F 78% 30.09 in 10.0 mi WNW 9.2 mph - N/A   Overcast
9:55 PM 28.8 °F 20.2 °F 22.6 °F 78% 30.09 in 10.0 mi WNW 9.2 mph - N/A   Overcast
10:15 PM 28.6 °F 19.3 °F 22.8 °F 79% 30.09 in 10.0 mi WNW 10.4 mph - N/A   Overcast
10:35 PM 28.4 °F 19.1 °F 22.3 °F 78% 30.11 in 10.0 mi WNW 10.4 mph - N/A   Overcast
10:55 PM 28.2 °F 20.2 °F 21.2 °F 75% 30.11 in 10.0 mi NW 8.1 mph - N/A   Overcast
11:15 PM 28.0 °F 20.0 °F 21.6 °F 77% 30.11 in 10.0 mi WNW 8.1 mph - N/A   Overcast
11:35 PM 28.0 °F 20.0 °F 20.7 °F 74% 30.11 in 10.0 mi NNW 8.1 mph - N/A   Overcast
11:55 PM 28.0 °F 20.0 °F 20.7 °F 74% 30.12 in 10.0 mi NNW 8.1 mph - N/A   Overcast